sat.trackr.live / text

‹ back to catalog

STARLINK-1309

NORAD 45414 · 2020-019BG

PAYLOAD ACTIVE UNKNOWN

§ Identity

Operator
Country
US
Launch date
2020-03-18
Launch site
AFETR
Launch vehicle
Mass (kg)
RCS (m²)

Purposes: comms

External: N2YO · Heavens-Above · Gunter

§ Orbital elements

Epoch: 2026-05-25T03:54:42.094080Z

Period
91.92 min
Inclination
53.0604°
Eccentricity
0.0006820
Mean motion
15.66602872 rev/d
Perigee alt
364.0 km
Apogee alt
373.2 km
Semi-major
6,746.8 km
B*
4.2574e-4
RAAN
110.2324°
Arg perigee
14.1154°
Mean anomaly
346.0051°
Rev number
34,198

§ Raw data

STARLINK-13091 45414U 20019BG  26145.16298720  .00045153  00000+0  42574-3 0  99952 45414  53.0604 110.2324 0006820  14.1154 346.0051 15.66602872341980

JSON: /api/v1/satellites/45414 · /tle

For live sub-satellite position, see the globe view (requires WebGL).

§ Visibility from observer

Set your observer location to see the next 7 days of passes ≥ 10°. The values pass through the URL so the page stays shareable.

No JS? Fill the form by hand. The geolocation button needs JavaScript.